Tracking 17855 objects as of 24-September-2016
HD Live streaming from Space Station
objects crossing your sky now

THORAD AGENA D DEB

Track THORAD AGENA D DEB now!
10-day predictions


NORAD ID: 4171
Int'l Code: 1969-082AP
Perigee: 769.9 km
Apogee: 821.9 km
Inclination: 70.1 °
Period: 100.6 minutes
Semi major axis: 7166 km
RCS: 0.0461 m2 (small)
Launch date: September 30, 1969
Source: United States (US)
Launch site: AIR FORCE WESTERN TEST RANGE (AFWTR)

Note: This is SATELLITE DEBRIS
Your satellite tracking list
Your tracking list is empty





NASA's NSSDC Master Catalog

Two Line Element Set (TLE):
1  4171U 69082AP  16267.90526477 +.00000246 +00000-0 +11450-3 0  9996
2  4171 070.0779 295.1164 0036327 038.6827 321.6889 14.30885293430230
Source of the keplerian elements: AFSPC

N2YO: 446